TimeCDT,TemperatureF,Dew PointF,Humidity,Sea Level PressureIn,VisibilityMPH,Wind Direction,Wind SpeedMPH,Gust SpeedMPH,PrecipitationIn,Events,Conditions,WindDirDegrees,DateUTC
12:15 AM,63.7,58.3,83,29.96,10.0,South,3.5,-,N/A,,Overcast,170,2012-10-24 05:15:00
12:35 AM,63.0,57.7,83,29.95,10.0,SSE,5.8,-,N/A,,Mostly Cloudy,160,2012-10-24 05:35:00
12:55 AM,62.8,57.7,84,29.94,10.0,SSE,5.8,-,N/A,,Scattered Clouds,160,2012-10-24 05:55:00
1:15 AM,62.6,57.4,83,29.94,10.0,South,8.1,-,N/A,,Clear,170,2012-10-24 06:15:00
1:35 AM,62.4,57.2,83,29.94,10.0,South,6.9,-,N/A,,Clear,190,2012-10-24 06:35:00
1:55 AM,62.6,57.4,83,29.94,10.0,South,9.2,-,N/A,,Clear,180,2012-10-24 06:55:00
2:15 AM,62.8,57.4,82,29.94,10.0,South,9.2,-,N/A,,Scattered Clouds,190,2012-10-24 07:15:00
2:35 AM,63.5,57.6,81,29.94,10.0,South,9.2,-,N/A,,Overcast,190,2012-10-24 07:35:00
2:55 AM,63.5,57.4,80,29.94,10.0,South,9.2,16.1,N/A,,Overcast,190,2012-10-24 07:55:00
3:15 AM,63.0,57.2,81,29.94,10.0,South,9.2,-,N/A,,Overcast,190,2012-10-24 08:15:00
3:35 AM,60.8,57.2,88,29.94,10.0,South,8.1,-,N/A,,Scattered Clouds,180,2012-10-24 08:35:00
3:55 AM,61.2,56.5,85,29.95,10.0,South,8.1,-,N/A,,Clear,190,2012-10-24 08:55:00
4:15 AM,61.7,56.3,82,29.95,10.0,South,9.2,-,N/A,,Clear,180,2012-10-24 09:15:00
4:35 AM,62.6,56.5,80,29.95,10.0,South,10.4,-,N/A,,Mostly Cloudy,190,2012-10-24 09:35:00
4:55 AM,62.4,56.3,80,29.95,10.0,South,11.5,-,N/A,,Mostly Cloudy,190,2012-10-24 09:55:00
5:15 AM,62.6,56.5,80,29.95,10.0,South,10.4,-,N/A,,Scattered Clouds,190,2012-10-24 10:15:00
5:35 AM,62.2,56.3,81,29.95,10.0,South,10.4,-,N/A,,Scattered Clouds,190,2012-10-24 10:35:00
5:55 AM,61.7,55.9,81,29.96,10.0,South,9.2,-,N/A,,Clear,190,2012-10-24 10:55:00
6:15 AM,61.5,55.8,81,29.96,10.0,South,11.5,-,N/A,,Clear,190,2012-10-24 11:15:00
6:35 AM,61.7,55.6,80,29.96,10.0,South,10.4,-,N/A,,Clear,190,2012-10-24 11:35:00